FW6116 Weather Reports


time (UTC)temp
C
wind
direction
speed
KPH
gust
KPH
rain 1hr
cm
rain 24hr
cm
rain mn
cm
humidity
%
barometer
mb
20260502123011 0 262 1.6 12.9 0.00 0.00 0.00 78 1020.1
20260502121508 -1 274 0.0 6.4 0.00 0.00 0.00 78 1020.0
20260502114605 0 360 1.6 4.8 0.00 0.00 0.00 74 1020.0
20260502113059 0 360 1.6 8.0 0.00 0.00 0.00 74 1020.0
20260502111555 1 360 1.6 4.8 0.00 0.00 0.00 71 1020.1
20260502110053 1 313 1.6 6.4 0.00 0.00 0.00 69 1020.3
20260502104552 1 317 1.6 6.4 0.00 0.00 0.00 70 1020.3
20260502103050 1 302 0.0 4.8 0.00 0.00 0.00 70 1020.3
20260502101550 1 320 1.6 6.4 0.00 0.00 0.00 70 1020.4
20260502071526 3 268 3.2 9.7 0.00 0.00 0.00 62 1020.9
20260502070019 4 297 1.6 4.8 0.00 0.00 0.00 60 1020.8
20260502064531 4 288 0.0 4.8 0.00 0.00 0.00 59 1020.7
20260502063015 4 307 0.0 3.2 0.00 0.00 0.00 56 1020.6
20260502061513 5 264 0.0 6.4 0.00 0.00 0.00 57 1020.5
20260502060010 5 296 0.0 4.8 0.00 0.00 0.00 53 1020.5
20260502054509 6 360 1.6 8.0 0.00 0.00 0.00 52 1020.5
20260502053007 6 360 0.0 4.8 0.00 0.00 0.00 50 1020.5
20260502051515 6 360 0.0 4.8 0.00 0.00 0.00 46 1020.3
20260502050005 7 360 0.0 0.0 0.00 0.00 0.00 47 1020.3
20260502044505 8 162 0.0 4.8 0.00 0.00 0.00 43 1020.3
20260502043004 8 360 3.2 4.8 0.00 0.00 0.00 45 1020.4
20260502041504 8 360 0.0 3.2 0.00 0.00 0.00 41 1020.3
20260502040003 10 360 0.0 3.2 0.00 0.00 0.00 36 1020.2
20260502034502 11 164 0.0 1.6 0.00 0.00 0.00 35 1020.0
20260502033002 11 163 0.0 0.0 0.00 0.00 0.00 29 1019.9
20260502031502 11 163 0.0 0.0 0.00 0.00 0.00 30 1019.7
20260502030001 12 163 0.0 0.0 0.00 0.00 0.00 29 1019.6
20260502024600 13 360 0.0 0.0 0.00 0.00 0.00 26 1019.6
20260502023100 13 163 0.0 0.0 0.00 0.00 0.00 26 1019.4
20260502021607 14 163 0.0 4.8 0.00 0.00 0.00 24 1019.4
20260502020058 15 163 4.8 8.0 0.00 0.00 0.00 23 1019.1
20260502014602 16 360 1.6 6.4 0.00 0.00 0.00 24 1019.1
20260502013059 16 360 1.6 6.4 0.00 0.00 0.00 25 1019.0
20260502011557 17 360 3.2 11.3 0.00 0.00 0.00 23 1019.0
20260502010100 17 159 9.7 14.5 0.00 0.00 0.00 22 1019.1
20260502004601 18 76 4.8 9.7 0.00 0.00 0.00 21 1019.1
20260502003053 18 40 9.7 16.1 0.00 0.00 0.00 21 1019.2
20260502001551 18 87 9.7 19.3 0.00 0.00 0.00 21 1019.3
20260502000059 18 9 1.6 17.7 0.00 0.00 0.00 19 1019.4
20260501234550 18 112 3.2 12.9 0.00 0.00 0.00 20 1019.5
20260501233050 18 163 6.4 14.5 0.00 0.00 0.00 20 1019.4
20260501231550 18 152 8.0 16.1 0.00 0.00 0.00 20 1019.5
20260501230047 18 52 6.4 17.7 0.00 0.00 0.00 20 1019.5
20260501224542 18 116 9.7 20.9 0.00 0.00 0.00 21 1019.5
20260501223041 18 82 8.0 20.9 0.00 0.00 0.00 21 1019.5
20260501221539 18 63 8.0 19.3 0.00 0.00 0.00 21 1019.6
20260501220036 18 128 6.4 14.5 0.00 0.00 0.00 21 1019.7
20260501214538 18 64 4.8 20.9 0.00 0.00 0.00 22 1019.9
20260501213031 18 101 9.7 20.9 0.00 0.00 0.00 21 1020.1
20260501211529 18 111 11.3 22.5 0.00 0.00 0.00 23 1020.3
20260501210027 17 71 11.3 24.1 0.00 0.00 0.00 24 1020.7
20260501204525 17 83 6.4 24.1 0.00 0.00 0.00 24 1021.0
20260501203026 17 360 3.2 25.7 0.00 0.00 0.00 23 1021.0
20260501201522 17 92 9.7 20.9 0.00 0.00 0.00 23 1021.3
20260501200021 18 121 8.0 17.7 0.00 0.00 0.00 23 1021.4
20260501194519 17 132 9.7 22.5 0.00 0.00 0.00 25 1021.4
20260501193017 16 355 6.4 24.1 0.00 0.00 0.00 26 1021.6
20260501191515 16 39 14.5 22.5 0.00 0.00 0.00 26 1021.6
20260501190016 16 67 4.8 22.5 0.00 0.00 0.00 26 1021.7
20260501184510 16 146 8.0 24.1 0.00 0.00 0.00 26 1021.8
20260501183011 15 88 11.3 24.1 0.00 0.00 0.00 27 1021.9
20260501181512 16 107 8.0 16.1 0.00 0.00 0.00 28 1022.0
20260501180003 16 175 8.0 22.5 0.00 0.00 0.00 27 1022.2
20260501174559 15 140 11.3 24.1 0.00 0.00 0.00 30 1022.4
20260501173057 15 88 16.1 25.7 0.00 0.00 0.00 30 1022.4
20260501171555 14 172 8.0 14.5 0.00 0.00 0.00 31 1022.6
20260501170053 14 342 6.4 16.1 0.00 0.00 0.00 30 1022.7
20260501164544 13 171 6.4 11.3 0.00 0.00 0.00 34 1022.6
20260501163043 12 15 0.0 16.1 0.00 0.00 0.00 34 1022.6
20260501161537 13 355 0.0 8.0 0.00 0.00 0.00 37 1022.7
20260501160032 12 5 4.8 9.7 0.00 0.00 0.00 41 1022.9
20260501154533 11 319 3.2 12.9 0.00 0.00 0.00 44 1023.0
20260501153024 10 355 3.2 12.9 0.00 0.00 0.00 50 1023.3
20260501151520 8 273 4.8 16.1 0.00 0.00 0.00 52 1023.3
20260501150022 7 355 3.2 8.0 0.00 0.00 0.00 54 1023.4
20260501144513 6 271 4.8 12.9 0.00 0.00 0.00 59 1023.5
20260501143007 5 317 3.2 8.0 0.00 0.00 0.00 63 1023.5
20260501141502 4 285 3.2 9.7 0.00 0.00 0.00 66 1023.5
20260501140058 3 274 3.2 6.4 0.00 0.00 0.00 67 1023.7